Time,TemperatureF,DewpointF,PressureIn,WindDirection,WindDirectionDegrees,WindSpeedMPH,WindSpeedGustMPH,Humidity,HourlyPrecipIn,Conditions,Clouds,dailyrainin,SoftwareType,DateUTC
2013-10-18 00:11:00,45.0,41.0,29.74,East,90,2.0,2.0,87,0.00,,,0.00,,2013-10-18 07:11:00,
2013-10-18 00:21:00,46.0,42.0,29.74,East,90,1.0,2.0,87,0.00,,,0.00,,2013-10-18 07:21:00,
2013-10-18 00:42:00,45.0,41.0,29.74,ESE,113,0.0,1.0,87,0.00,,,0.00,,2013-10-18 07:42:00,
2013-10-18 00:52:00,45.0,42.0,29.73,East,90,0.0,0.0,88,0.00,,,0.00,,2013-10-18 07:52:00,
2013-10-18 01:11:00,45.0,42.0,29.73,NNE,23,0.0,1.0,88,0.00,,,0.00,,2013-10-18 08:11:00,
2013-10-18 01:21:00,46.0,43.0,29.73,East,90,0.0,0.0,89,0.00,,,0.00,,2013-10-18 08:21:00,
2013-10-18 01:41:00,46.0,43.0,29.73,East,90,1.0,1.0,89,0.00,,,0.00,,2013-10-18 08:41:00,
2013-10-18 01:52:00,46.0,43.0,29.73,SSW,203,0.0,1.0,89,0.00,,,0.00,,2013-10-18 08:52:00,
2013-10-18 02:11:00,46.0,43.0,29.73,ESE,113,1.0,1.0,90,0.00,,,0.00,,2013-10-18 09:11:00,
2013-10-18 02:21:00,45.0,42.0,29.73,East,90,0.0,1.0,90,0.00,,,0.00,,2013-10-18 09:21:00,
2013-10-18 02:53:00,45.0,42.0,29.73,West,270,0.0,0.0,90,0.00,,,0.00,,2013-10-18 09:53:00,
2013-10-18 03:23:00,45.0,42.0,29.73,SE,135,0.0,0.0,90,0.00,,,0.00,,2013-10-18 10:23:00,
2013-10-18 03:53:00,46.0,43.0,29.73,East,90,0.0,0.0,90,0.00,,,0.00,,2013-10-18 10:53:00,
2013-10-18 04:11:00,46.0,43.0,29.73,East,90,0.0,1.0,90,0.00,,,0.00,,2013-10-18 11:11:00,
2013-10-18 04:22:00,46.0,43.0,29.73,ESE,113,0.0,0.0,90,0.00,,,0.00,,2013-10-18 11:22:00,
2013-10-18 04:52:00,46.0,43.0,29.72,ENE,68,0.0,0.0,90,0.00,,,0.00,,2013-10-18 11:52:00,
2013-10-18 05:12:00,46.0,44.0,29.72,WNW,293,0.0,0.0,91,0.00,,,0.00,,2013-10-18 12:12:00,
2013-10-18 05:21:00,46.0,44.0,29.72,WNW,293,0.0,0.0,91,0.00,,,0.00,,2013-10-18 12:21:00,
2013-10-18 05:42:00,46.0,44.0,29.73,ESE,113,0.0,0.0,91,0.00,,,0.00,,2013-10-18 12:42:00,
2013-10-18 05:52:00,45.0,43.0,29.72,WNW,293,0.0,0.0,91,0.00,,,0.00,,2013-10-18 12:52:00,
2013-10-18 06:11:00,45.0,43.0,29.72,North,0,0.0,0.0,91,0.00,,,0.00,,2013-10-18 13:11:00,
2013-10-18 06:21:00,45.0,43.0,29.72,South,180,0.0,0.0,91,0.00,,,0.00,,2013-10-18 13:21:00,
2013-10-18 06:42:00,45.0,43.0,29.73,NE,45,0.0,0.0,91,0.00,,,0.00,,2013-10-18 13:42:00,
2013-10-18 06:52:00,45.0,43.0,29.72,ENE,68,0.0,1.0,91,0.00,,,0.00,,2013-10-18 13:52:00,
2013-10-18 07:11:00,45.0,43.0,29.72,East,90,0.0,0.0,91,0.00,,,0.00,,2013-10-18 14:11:00,
2013-10-18 07:21:00,45.0,43.0,29.71,WSW,248,0.0,0.0,91,0.00,,,0.00,,2013-10-18 14:21:00,
2013-10-18 07:42:00,45.0,43.0,29.71,ESE,113,0.0,0.0,91,0.00,,,0.00,,2013-10-18 14:42:00,
2013-10-18 07:52:00,44.0,41.0,29.71,SE,135,0.0,0.0,90,0.00,,,0.00,,2013-10-18 14:52:00,
2013-10-18 08:11:00,44.0,41.0,29.71,ESE,113,0.0,0.0,90,0.00,,,0.00,,2013-10-18 15:11:00,
2013-10-18 08:12:00,44.0,41.0,29.72,East,90,1.0,2.0,90,0.00,,,0.00,,2013-10-18 15:12:00,
2013-10-18 08:22:00,44.0,41.0,29.72,ESE,113,0.0,1.0,90,0.00,,,0.00,,2013-10-18 15:22:00,
2013-10-18 08:43:00,44.0,41.0,29.72,East,90,1.0,2.0,90,0.00,,,0.00,,2013-10-18 15:43:00,
2013-10-18 08:54:00,44.0,41.0,29.72,East,90,1.0,2.0,90,0.00,,,0.00,,2013-10-18 15:54:00,
2013-10-18 09:04:00,44.0,41.0,29.72,East,90,1.0,2.0,90,0.00,,,0.00,,2013-10-18 16:04:00,
2013-10-18 21:54:00,44.0,41.0,29.72,ESE,113,0.0,0.0,90,0.00,,,0.00,,2013-10-19 04:54:00,
2013-10-18 22:13:00,47.0,43.0,29.66,ESE,113,0.0,0.0,86,0.00,,,0.00,,2013-10-19 05:13:00,
2013-10-18 22:22:00,47.0,43.0,29.65,ESE,113,0.0,0.0,86,0.00,,,0.00,,2013-10-19 05:22:00,
2013-10-18 22:42:00,46.0,42.0,29.65,ESE,113,0.0,0.0,86,0.00,,,0.00,,2013-10-19 05:42:00,
2013-10-18 22:52:00,46.0,42.0,29.65,ESE,113,0.0,0.0,86,0.00,,,0.00,,2013-10-19 05:52:00,
2013-10-18 23:12:00,46.0,42.0,29.65,East,90,0.0,0.0,87,0.00,,,0.00,,2013-10-19 06:12:00,
2013-10-18 23:22:00,46.0,42.0,29.65,ESE,113,1.0,1.0,87,0.00,,,0.00,,2013-10-19 06:22:00,
2013-10-18 23:32:00,46.0,42.0,29.65,ESE,113,1.0,1.0,87,0.00,,,0.00,,2013-10-19 06:32:00,
2013-10-18 23:42:00,46.0,42.0,29.65,ESE,113,1.0,1.0,87,0.00,,,0.00,,2013-10-19 06:42:00,
2013-10-18 23:52:00,46.0,42.0,29.65,ESE,113,1.0,1.0,87,0.00,,,0.00,,2013-10-19 06:52:00,